DW9497 Chester UK current weather conditions

sailwx.info

Wind from 311

Air temperature 6.7° C
Dewpoint 6.2° C

Last reported at 2019-Nov-17 17:00 UTC.
Time now 2019-Nov-17 17:35 UTC

Location: N 53°12' W 002°52'.
View on Google Maps.

See reports from other nearby stations

  
Tides and Currents Weather Stations Pressure Air Temp Water Temp Dewpoint Dewpoint Depression Visibility Wind Speed Wind Dir Waves Ship Positions
date/time (UTC)wind fromknots sea level pressurealtimeterstation pressurevisibilityair tempwater tempwave heightnotes
2019-Nov-17 17:00 311 6.7
2019-Nov-17 16:45 283 6.7
2019-Nov-17 16:30 280 6.7
2019-Nov-17 16:15 262 6.7
2019-Nov-17 16:00 047 7.2
2019-Nov-17 15:45 110 7.2
2019-Nov-17 15:30 323 7.2
2019-Nov-17 15:15 312 7.2
2019-Nov-17 15:02 309 7.2
2019-Nov-17 15:00 308 7.2
2019-Nov-17 14:47 307 7.8
2019-Nov-17 14:31 304 7.8
2019-Nov-17 14:17 228 7.8
2019-Nov-17 14:01 063 7.8
2019-Nov-17 13:46 319 7.8
2019-Nov-17 13:33 327 7.8
2019-Nov-17 13:16 044 7.8
2019-Nov-17 13:02 309 7.8
2019-Nov-17 12:46 333 7.8
2019-Nov-17 12:32 254 7.8
2019-Nov-17 12:15 298 7.2
2019-Nov-17 12:01 307 7.2
2019-Nov-17 11:46 325 7.2
2019-Nov-17 11:31 293 6.7
2019-Nov-17 11:16 307 6.7
2019-Nov-17 11:01 311 6.7
2019-Nov-17 10:46 302 6.7
2019-Nov-17 10:30 297 6.7
2019-Nov-17 10:16 281 6.1
2019-Nov-17 10:01 264 6.1
2019-Nov-17 09:45 299 6.1
2019-Nov-17 09:30 293 5.6
2019-Nov-17 09:16 314 5.6
2019-Nov-17 09:00 314 5.0
2019-Nov-17 08:45 314 4.4
2019-Nov-17 08:30 314 4.4
2019-Nov-17 08:16 297 4.4
2019-Nov-17 08:00 298 4.4
2019-Nov-17 07:45 298 5.0
2019-Nov-17 07:30 298 5.0
2019-Nov-17 07:15 297 5.6
2019-Nov-17 07:00 297 5.6
2019-Nov-17 06:45 298 6.1
2019-Nov-17 06:33 295 6.1
2019-Nov-17 06:16 311 6.1
2019-Nov-17 06:02 297 6.1
2019-Nov-17 05:47 304 6.1
2019-Nov-17 05:31 304 6.1
2019-Nov-17 05:16 304 6.1
2019-Nov-17 05:01 304 6.1
2019-Nov-17 04:46 304 6.1
2019-Nov-17 04:31 304 6.1
2019-Nov-17 04:16 304 6.1
2019-Nov-17 04:01 302 6.1
2019-Nov-17 03:46 302 6.1
2019-Nov-17 03:31 302 6.1
2019-Nov-17 03:17 302 6.1
2019-Nov-17 03:01 302 6.1
2019-Nov-17 02:47 302 6.1
2019-Nov-17 02:30 302 5.6
2019-Nov-17 02:15 302 5.6
2019-Nov-17 02:01 302 5.6
2019-Nov-17 01:48 302 5.6
2019-Nov-17 01:31 302 5.6
2019-Nov-17 01:15 302 5.6
2019-Nov-17 01:01 302 5.6
2019-Nov-17 00:45 302 6.1
2019-Nov-17 00:31 302 6.1
2019-Nov-17 00:15 302 6.1
2019-Nov-17 00:00 302 6.1
2019-Nov-16 23:45 302 6.1
2019-Nov-16 23:30 302 6.1
2019-Nov-16 23:15 302 6.1
2019-Nov-16 23:00 302 6.1
2019-Nov-16 22:45 302 6.1
2019-Nov-16 22:31 291 6.1
2019-Nov-16 22:15 290 6.1
2019-Nov-16 22:00 291 6.1
2019-Nov-16 21:45 290 6.1
2019-Nov-16 21:30 291 6.1
2019-Nov-16 21:15 291 6.1
2019-Nov-16 21:00 291 6.1
2019-Nov-16 20:45 291 6.7
2019-Nov-16 20:30 290 6.7
2019-Nov-16 20:15 347 6.7
2019-Nov-16 20:00 307 6.7
2019-Nov-16 19:45 307 6.7
2019-Nov-16 19:30 297 6.7
2019-Nov-16 19:15 297 6.7
2019-Nov-16 19:00 308 6.7
2019-Nov-16 18:45 284 6.7
2019-Nov-16 18:30 283 6.7
2019-Nov-16 18:15 283 6.7
2019-Nov-16 18:00 284 6.7
2019-Nov-16 17:45 274 6.7
2019-Nov-16 17:30 274 6.7
2019-Nov-16 17:15 278 6.7
2019-Nov-16 17:00 255 6.7
2019-Nov-16 16:45 279 6.7
2019-Nov-16 16:30 307 6.7
2019-Nov-16 16:15 267 7.2
2019-Nov-16 16:02 297 7.2
2019-Nov-16 16:00 274 7.2
2019-Nov-16 15:47 249 7.2
2019-Nov-16 15:32 318 7.2
2019-Nov-16 15:17 255 0 gusting 2 7.8
2019-Nov-16 15:02 304 7.8
2019-Nov-16 14:48 302 7.8
2019-Nov-16 14:32 276 7.8
2019-Nov-16 14:17 277 7.8
2019-Nov-16 14:01 295 7.8
2019-Nov-16 13:47 269 7.8
2019-Nov-16 13:31 259 7.8
2019-Nov-16 13:16 264 7.8
2019-Nov-16 13:02 276 7.8
2019-Nov-16 12:46 291 7.8
2019-Nov-16 12:32 260 0 gusting 2 7.8
2019-Nov-16 12:16 315 7.8
2019-Nov-16 12:01 281 7.8
2019-Nov-16 11:46 286 7.2
2019-Nov-16 11:31 256 7.2
2019-Nov-16 11:16 269 6.7
2019-Nov-16 11:01 323 6.7
2019-Nov-16 10:47 256 6.7
2019-Nov-16 10:30 350 6.7
2019-Nov-16 10:15 283 6.1
2019-Nov-16 10:01 326 6.1
2019-Nov-16 09:46 309 6.1
2019-Nov-16 09:30 120 6.1
2019-Nov-16 09:15 283 5.6
2019-Nov-16 09:00 293 5.0
2019-Nov-16 08:46 333 4.4
2019-Nov-16 08:31 326 4.4
2019-Nov-16 08:16 309 4.4
2019-Nov-16 08:00 309 4.4
2019-Nov-16 07:46
2019-Nov-16 07:30
2019-Nov-16 07:15
2019-Nov-16 07:00
2019-Nov-16 06:45
2019-Nov-16 06:30
2019-Nov-16 06:17
2019-Nov-16 06:01
2019-Nov-16 05:46
2019-Nov-16 05:31
2019-Nov-16 05:16
2019-Nov-16 05:01
2019-Nov-16 04:46
2019-Nov-16 04:31
2019-Nov-16 04:15
2019-Nov-16 04:00
2019-Nov-16 03:45
2019-Nov-16 03:30
2019-Nov-16 03:15 283 6.1
2019-Nov-16 03:00 033 6.1
2019-Nov-16 02:45 355 6.1
2019-Nov-16 02:30 285 6.1
2019-Nov-16 02:18 064 6.1
2019-Nov-16 02:02 101 6.1
2019-Nov-16 01:46 018 0 gusting 3 6.1
2019-Nov-16 01:31 315 0 gusting 5 6.1
2019-Nov-16 01:16 294 0 gusting 4 6.1
2019-Nov-16 01:01 008 1 gusting 4 6.1
2019-Nov-16 00:46 348 0 gusting 5 6.1
2019-Nov-16 00:31 300 0 gusting 5 6.1
2019-Nov-16 00:16 267 0 gusting 5 6.1
2019-Nov-16 00:02 314 0 gusting 3 5.6
2019-Nov-15 23:46 012 5.6
2019-Nov-15 23:31 298 5.6
2019-Nov-15 23:16 285 0 gusting 5 5.6
2019-Nov-15 23:01 343 0 gusting 5 5.6
2019-Nov-15 22:46 342 0 gusting 3 5.0
2019-Nov-15 22:31 323 5.0
2019-Nov-15 22:16 258 5.0
2019-Nov-15 22:00 325 1 gusting 7 5.6
2019-Nov-15 21:46 338 0 gusting 5 5.6
2019-Nov-15 21:31 013 0 gusting 5 5.6
2019-Nov-15 21:16 046 6.1
2019-Nov-15 21:01 094 0 gusting 4 6.1
2019-Nov-15 20:46 200 0 gusting 5 5.6
2019-Nov-15 20:31 023 1 gusting 5 5.6
2019-Nov-15 20:15 023 1 gusting 6 6.1
2019-Nov-15 20:00 108 0 gusting 4 6.1
2019-Nov-15 19:46 277 0 gusting 5 6.1
2019-Nov-15 19:30 030 0 gusting 4 6.1
2019-Nov-15 19:15 339 6.1
2019-Nov-15 19:00 357 6.1
2019-Nov-15 18:45 015 6.1
2019-Nov-15 18:30 012 0 gusting 3 5.6
2019-Nov-15 18:15 327 5.6
2019-Nov-15 18:01 290 5.6
2019-Nov-15 17:45 016 5.6
2019-Nov-15 17:30 207 5.6
2019-Nov-15 17:15 011 6.1
2019-Nov-15 17:01 330 6.1